DW1253 Weather Reports


time (UTC)temp
F
wind
direction
speed
knots
gust
knots
rain 1hr
in
rain 24hr
in
rain mn
in
humidity
%
barometer
mb
20260506231849 43 269 0.0 0.9 0.00 1.01 0.61 90 1010.1
20260506231410 43 265 0.0 2.6 0.00 1.01 0.61 90 1009.8
20260506230839 43 265 0.9 2.6 0.00 1.01 0.61 90 1009.9
20260506230343 43 184 0.9 2.6 0.00 1.01 0.61 90 1010.0
20260506225856 43 315 0.9 2.6 0.00 1.17 0.61 90 1009.9
20260506225348 43 262 0.9 3.5 0.00 1.17 0.61 90 1009.8
20260506224906 43 343 0.9 3.5 0.00 1.17 0.61 90 1009.9
20260506224345 43 278 0.9 2.6 0.00 1.17 0.61 90 1009.9
20260506223835 44 95 0.0 2.6 0.00 1.17 0.61 90 1009.8
20260506223350 44 355 0.0 1.7 0.00 1.17 0.61 89 1009.5
20260506222853 44 315 0.9 2.6 0.00 1.17 0.61 89 1009.5
20260506222348 44 225 0.0 2.6 0.00 1.17 0.61 89 1009.4
20260506221913 44 262 0.0 5.2 0.00 1.17 0.61 89 1009.4
20260506221352 45 261 1.7 5.2 0.00 1.17 0.61 88 1009.3
20260506220914 45 238 0.9 5.2 0.00 1.17 0.61 88 1009.0
20260506220417 45 355 1.7 4.3 0.00 1.17 0.61 88 1009.0
20260506215849 46 331 0.9 2.6 0.00 1.31 0.61 87 1008.9
20260506215336 46 328 0.0 2.6 0.00 1.31 0.61 87 1008.8
20260506214842 46 339 0.0 7.0 0.00 1.31 0.61 86 1008.8
20260506214356 46 238 3.5 7.0 0.00 1.31 0.61 85 1008.7
20260506213849 47 279 0.0 8.7 0.00 1.31 0.61 84 1008.7
20260506213346 47 224 0.9 8.7 0.00 1.31 0.61 83 1008.6
20260506212853 48 299 0.9 7.0 0.00 1.31 0.61 82 1008.7
20260506212335 48 342 1.7 7.0 0.00 1.31 0.61 81 1008.6
20260506211853 49 217 2.6 5.2 0.00 1.31 0.61 81 1008.5
20260506211349 50 182 0.9 7.0 0.00 1.31 0.61 81 1008.3
20260506210845 50 227 3.5 9.6 0.00 1.31 0.61 80 1008.3
20260506210341 50 234 3.5 7.0 0.00 1.31 0.61 79 1008.0
20260506205855 50 198 0.9 3.5 0.00 1.32 0.61 79 1008.0
20260506205343 51 172 0.9 4.3 0.00 1.32 0.61 77 1007.9
20260506204841 50 209 1.7 4.3 0.00 1.32 0.61 82 1007.9
20260506204358 49 279 2.6 4.3 0.00 1.32 0.61 83 1008.1
20260506203835 49 263 1.7 6.1 0.00 1.32 0.61 82 1008.0
20260506203354 49 236 1.7 6.1 0.00 1.32 0.61 82 1008.1
20260506202854 49 209 1.7 7.0 0.00 1.32 0.61 82 1008.2
20260506202401 50 223 2.6 7.0 0.00 1.32 0.61 82 1008.1
20260506201837 50 189 2.6 6.1 0.00 1.32 0.61 83 1008.0
20260506201336 50 277 1.7 4.3 0.00 1.32 0.61 82 1008.0
20260506200854 50 213 2.6 4.3 0.00 1.32 0.61 80 1008.1
20260506200339 50 15 1.7 6.1 0.00 1.32 0.61 81 1008.0
20260506195848 50 248 0.9 6.1 0.00 1.32 0.61 80 1008.1
20260506195406 51 211 0.9 4.3 0.00 1.32 0.61 78 1008.0
20260506194836 51 246 0.9 3.5 0.00 1.32 0.61 78 1008.0
20260506194353 51 245 0.9 3.5 0.00 1.32 0.61 78 1007.8
20260506193909 51 96 0.9 7.0 0.00 1.32 0.61 84 1007.9
20260506193349 50 349 2.6 7.0 0.00 1.32 0.61 86 1008.0
20260506192849 50 302 0.0 1.7 0.00 1.32 0.61 87 1007.9
20260506192349 49 292 0.0 2.6 0.00 1.32 0.61 85 1008.0
20260506191839 49 256 0.9 2.6 0.00 1.32 0.61 86 1008.0
20260506191402 49 254 0.0 3.5 0.00 1.32 0.61 84 1008.0
20260506190845 49 229 0.0 3.5 0.00 1.32 0.61 85 1008.1
20260506190344 49 344 0.9 3.5 0.00 1.32 0.61 84 1008.1
20260506185851 49 28 0.0 3.5 0.00 1.32 0.61 86 1008.1
20260506185349 49 281 0.0 3.5 0.00 1.32 0.61 86 1008.0
20260506184841 49 340 0.9 2.6 0.00 1.32 0.61 86 1008.1
20260506184353 49 194 0.9 3.5 0.00 1.32 0.61 88 1007.9
20260506183835 49 218 0.0 4.3 0.00 1.32 0.61 86 1007.8
20260506183405 49 217 1.7 4.3 0.00 1.32 0.61 87 1007.8
20260506182844 48 199 2.6 4.3 0.00 1.32 0.61 89 1007.9
20260506182335 48 224 1.7 3.5 0.00 1.32 0.61 90 1007.9
20260506181849 48 200 0.0 2.6 0.00 1.32 0.61 94 1008.0
20260506181342 47 212 0.9 2.6 0.00 1.32 0.61 94 1008.1
20260506180837 47 71 0.0 2.6 0.00 1.32 0.61 94 1008.1
20260506180330 47 321 0.0 1.7 0.00 1.32 0.61 94 1008.1
20260506175845 47 312 0.9 1.7 0.00 1.32 0.61 94 1008.1
20260506175345 46 290 0.9 1.7 0.00 1.32 0.61 94 1008.0
20260506174849 46 301 0.9 3.5 0.00 1.32 0.61 94 1008.0
20260506174348 46 340 0.9 3.5 0.00 1.32 0.61 95 1008.0
20260506173841 46 281 0.9 2.6 0.00 1.32 0.61 95 1008.1
20260506173337 46 242 0.9 2.6 0.00 1.32 0.61 95 1008.1
20260506172834 46 136 0.9 1.7 0.00 1.32 0.61 95 1008.1
20260506172351 46 154 0.0 3.5 0.00 1.32 0.61 95 1008.0
20260506171837 46 155 0.0 3.5 0.00 1.32 0.61 95 1007.9
20260506171347 46 317 0.9 3.5 0.00 1.32 0.61 95 1007.9
20260506170847 45 316 0.0 4.3 0.00 1.32 0.61 95 1007.9
20260506170411 45 316 1.7 4.3 0.00 1.32 0.61 95 1008.2
20260506165903 45 302 1.7 4.3 0.00 1.32 0.61 95 1007.9
20260506165348 45 304 0.9 4.3 0.00 1.32 0.61 95 1007.9
20260506164844 46 351 0.9 3.5 0.00 1.32 0.61 95 1007.8
20260506164341 46 302 0.0 2.6 0.00 1.32 0.61 95 1007.7
20260506163843 46 301 0.9 2.6 0.00 1.32 0.61 95 1007.7
20260506163344 46 192 0.0 3.5 0.00 1.32 0.61 95 1007.8
20260506162902 46 251 0.9 6.1 0.00 1.32 0.61 95 1007.6
20260506162356 46 344 2.6 6.1 0.00 1.32 0.61 95 1007.5
20260506161838 46 136 1.7 3.5 0.00 1.32 0.61 95 1007.3
20260506161420 46 309 0.9 4.3 0.00 1.32 0.61 95 1007.4
20260506160852 46 55 1.7 4.3 0.00 1.32 0.61 95 1007.4
20260506160353 46 5 0.9 3.5 0.00 1.32 0.61 95 1007.4
20260506155839 46 360 1.7 4.3 0.00 1.32 0.61 95 1007.5
20260506155404 46 360 2.6 4.3 0.00 1.32 0.61 95 1007.4
20260506154839 46 23 0.0 3.5 0.00 1.32 0.61 95 1007.4
20260506154336 46 27 0.0 3.5 0.00 1.32 0.61 95 1007.4
20260506153838 46 23 0.9 3.5 0.00 1.32 0.61 95 1007.4
20260506153351 46 5 1.7 3.5 0.00 1.32 0.61 95 1007.4
20260506152841 46 16 0.0 2.6 0.00 1.32 0.61 95 1007.3
20260506152410 46 22 0.9 5.2 0.00 1.32 0.61 96 1007.3
20260506151854 45 349 0.9 5.2 0.00 1.32 0.61 96 1007.3
20260506151351 45 34 0.9 3.5 0.00 1.32 0.61 96 1007.3
20260506150855 45 32 1.7 3.5 0.00 1.32 0.61 96 1007.2
20260506150412 45 9 1.7 3.5 0.00 1.32 0.61 96 1007.3
20260506145855 45 40 2.6 3.5 0.00 1.32 0.61 96 1007.3
20260506145412 45 11 1.7 3.5 0.00 1.32 0.61 96 1007.2
20260506144842 45 25 1.7 3.5 0.01 1.32 0.61 96 1007.0
20260506144354 46 355 0.9 3.5 0.01 1.32 0.61 96 1006.9
20260506143849 45 80 1.7 3.5 0.01 1.32 0.61 96 1006.8
20260506143344 45 80 1.7 3.5 0.01 1.32 0.61 96 1006.8
20260506142838 45 76 2.6 3.5 0.01 1.32 0.61 96 1006.7
20260506142336 45 90 0.9 2.6 0.01 1.32 0.61 96 1006.6
20260506141852 44 91 0.9 1.7 0.01 1.32 0.61 96 1006.9
20260506141348 44 91 0.9 2.6 0.01 1.32 0.61 96 1006.8
20260506140844 44 91 0.9 3.5 0.01 1.32 0.61 96 1006.8
20260506140401 44 91 0.9 5.2 0.01 1.32 0.61 96 1006.7
20260506135836 44 104 1.7 6.1 0.01 1.32 0.61 96 1006.7
20260506135336 44 84 2.6 6.1 0.01 1.32 0.61 96 1006.5
20260506134837 45 86 2.6 5.2 0.00 1.31 0.60 96 1006.4
20260506134354 45 138 1.7 3.5 0.01 1.31 0.60 96 1006.5
20260506133852 44 63 1.7 4.3 0.01 1.31 0.60 96 1006.5
20260506133348 44 89 1.7 6.1 0.01 1.31 0.60 96 1006.5
20260506132848 44 89 3.5 6.1 0.01 1.31 0.60 96 1006.6
20260506132346 44 74 0.9 2.6 0.02 1.31 0.60 96 1006.5
20260506131841 44 74 0.9 2.6 0.02 1.31 0.60 96 1006.5
20260506131342 44 74 1.7 2.6 0.02 1.31 0.60 96 1006.5
20260506130857 44 74 0.0 3.5 0.02 1.31 0.60 96 1006.5
20260506130333 44 67 1.7 3.5 0.02 1.31 0.60 96 1006.4
20260506125906 44 35 1.7 3.5 0.02 1.31 0.60 96 1006.3
20260506125347 44 85 0.9 5.2 0.02 1.31 0.60 96 1006.3
20260506124851 44 86 2.6 5.2 0.03 1.31 0.60 96 1006.1
20260506124343 44 47 0.9 2.6 0.02 1.30 0.59 96 1006.2
20260506123836 44 76 1.7 2.6 0.02 1.30 0.59 96 1006.0
20260506123334 44 51 0.9 3.5 0.02 1.30 0.59 96 1006.3
20260506122847 44 51 1.7 3.5 0.03 1.30 0.59 96 1006.3
20260506122409 44 82 1.7 4.3 0.02 1.29 0.58 96 1006.3
20260506121844 44 18 2.6 4.3 0.03 1.29 0.58 96 1006.1
20260506121339 44 31 1.7 3.5 0.04 1.29 0.58 96 1006.1
20260506120835 44 58 1.7 4.3 0.04 1.29 0.58 96 1006.0
20260506120335 44 9 0.9 4.3 0.05 1.29 0.58 96 1006.0
20260506115851 44 54 1.7 5.2 0.05 1.29 0.58 96 1005.9
20260506115415 44 69 1.7 5.2 0.05 1.29 0.58 96 1005.8
20260506114851 44 98 1.7 5.2 0.04 1.28 0.57 96 1006.0
20260506114343 43 86 3.5 8.7 0.05 1.28 0.57 96 1005.9
20260506113838 43 101 2.6 13.0 0.05 1.28 0.57 96 1005.8
20260506113350 43 59 4.3 13.0 0.05 1.28 0.57 96 1006.0
20260506112851 43 76 6.1 12.2 0.04 1.27 0.56 96 1006.1
20260506112343 43 355 3.5 11.3 0.04 1.27 0.56 96 1006.2
20260506111858 43 348 5.2 11.3 0.04 1.26 0.55 96 1006.2
20260506111411 44 28 6.1 9.6 0.03 1.25 0.54 96 1006.3
20260506110852 44 54 1.7 10.4 0.04 1.25 0.54 96 1006.2
20260506110341 44 5 3.5 11.3 0.03 1.24 0.53 96 1006.1
20260506105834 44 302 2.6 13.0 0.04 1.24 0.53 96 1005.7
20260506105413 44 16 2.6 13.0 0.04 1.24 0.53 96 1005.5
20260506104843 44 85 2.6 8.7 0.04 1.23 0.52 96 1005.5
20260506104338 44 76 3.5 9.6 0.05 1.23 0.52 96 1005.4
20260506103859 44 72 3.5 9.6 0.05 1.23 0.52 96 1005.3
20260506103352 45 43 3.5 9.6 0.06 1.23 0.52 96 1005.4
20260506102852 45 63 3.5 7.0 0.06 1.23 0.52 96 1005.5
20260506102344 45 49 2.6 9.6 0.07 1.23 0.52 96 1005.4
20260506101904 45 77 4.3 10.4 0.06 1.22 0.51 96 1005.3
20260506101336 45 101 4.3 8.7 0.07 1.22 0.51 96 1005.2
20260506100900 45 71 2.6 8.7 0.06 1.21 0.50 96 1005.6
20260506100354 45 59 3.5 7.0 0.07 1.21 0.50 96 1005.6
20260506095850 45 51 4.3 8.7 0.07 1.20 0.49 96 1005.8
20260506095346 45 95 4.3 8.7 0.06 1.19 0.48 96 1005.8
20260506094837 45 51 4.3 7.8 0.07 1.19 0.48 96 1006.0
20260506094338 45 76 3.5 8.7 0.07 1.18 0.47 96 1006.0
20260506093839 45 61 4.3 9.6 0.07 1.18 0.47 96 1005.9
20260506093339 44 33 3.5 10.4 0.06 1.17 0.46 96 1005.9
20260506092856 45 38 5.2 10.4 0.07 1.17 0.46 96 1005.9
20260506092417 45 64 4.3 9.6 0.07 1.16 0.45 96 1005.9
20260506091408 45 70 4.3 8.7 0.07 1.15 0.44 96 1005.7
20260506090850 45 82 4.3 10.4 0.08 1.15 0.44 96 1005.8
20260506090349 45 355 5.2 9.6 0.07 1.14 0.43 96 1005.8
20260506085841 45 117 2.6 8.7 0.06 1.13 0.42 96 1005.8
20260506085339 45 93 3.5 9.6 0.06 1.12 0.41 96 1005.7
20260506084839 45 65 4.3 9.6 0.06 1.12 0.41 96 1005.8
20260506084352 45 63 2.6 7.0 0.06 1.11 0.40 96 1005.7
20260506083852 45 86 2.6 7.8 0.06 1.11 0.40 96 1005.7
20260506083336 46 22 3.5 9.6 0.06 1.11 0.40 100 1005.6
20260506082842 46 30 5.2 9.6 0.04 1.09 0.38 96 1005.5
20260506082349 46 100 2.6 7.0 0.04 1.09 0.38 96 1005.8
20260506081849 46 58 3.5 10.4 0.03 1.08 0.37 96 1005.8
20260506081406 46 78 6.1 10.4 0.04 1.08 0.37 96 1005.8
20260506080849 46 67 2.6 7.8 0.03 1.07 0.36 96 1005.6
20260506080342 46 33 2.6 7.8 0.04 1.07 0.36 96 1005.7
20260506073340 46 23 4.3 7.8 0.05 1.05 0.34 96 1005.6
20260506072856 46 27 1.7 7.0 0.05 1.05 0.34 96 1005.6
20260506072338 46 90 1.7 5.2 0.07 1.05 0.34 96 1005.7
20260506071855 46 43 1.7 5.2 0.08 1.05 0.34 96 1005.8
20260506071335 46 12 2.6 7.0 0.09 1.04 0.33 96 1006.0
20260506070834 46 19 3.5 7.0 0.10 1.03 0.32 96 1006.0
20260506070353 46 44 1.7 6.1 0.14 1.03 0.32 96 1006.3
20260506062358 47 303 0.9 5.2 0.16 0.98 0.27 96 1006.8
20260506061841 47 355 1.7 7.0 0.16 0.97 0.26 96 1006.2
20260506060852 47 33 1.7 4.3 0.14 0.93 0.22 96 1006.0
20260506060343 47 11 1.7 4.3 0.11 0.89 0.18 96 1006.4
20260506051414 47 11 1.7 3.5 0.09 0.80 0.09 96 1007.0
20260506050857 47 242 0.9 1.7 0.08 0.79 0.08 96 1007.1
20260506050330 48 242 0.0 1.7 0.07 0.78 0.07 96 1007.1
20260506044843 48 242 0.0 1.7 0.05 0.75 0.04 96 1006.8
20260506044344 48 242 0.0 1.7 0.05 0.74 0.03 96 1006.8
20260506043847 48 242 0.9 1.7 0.04 0.73 0.02 96 1006.8
20260506043343 48 242 0.0 1.7 0.05 0.73 0.02 96 1006.9
20260506042846 48 242 0.0 2.6 0.06 0.73 0.02 96 1007.1
20260506042407 48 242 1.7 3.5 0.05 0.72 0.01 96 1007.3
20260506041847 48 242 1.7 3.5 0.05 0.72 0.01 96 1007.3
20260506041348 48 93 0.0 1.7 0.05 0.71 0.00 96 1006.9
20260506040851 48 93 0.0 1.7 0.05 0.71 0.00 96 1007.0
20260506040346 48 93 0.9 1.7 0.06 0.71 0.00 96 1006.8
20260506035852 48 93 0.0 1.7 0.06 0.71 0.71 96 1006.9
20260506035346 48 93 0.0 3.5 0.06 0.70 0.70 96 1006.8
20260506034840 48 93 2.6 3.5 0.06 0.70 0.70 96 1006.7
20260506034338 48 70 0.9 2.6 0.06 0.69 0.69 96 1006.9
20260506033837 48 69 1.7 2.6 0.07 0.69 0.69 96 1006.8
20260506033356 48 67 0.0 1.7 0.06 0.68 0.68 96 1006.9
20260506032837 48 67 0.0 1.7 0.06 0.67 0.67 96 1006.9
20260506032356 48 67 0.9 1.7 0.06 0.67 0.67 96 1006.9
20260506031850 48 67 0.9 1.7 0.07 0.67 0.67 96 1006.9
20260506031352 48 67 0.0 0.9 0.07 0.66 0.66 96 1007.1
20260506030834 48 67 0.0 0.9 0.08 0.65 0.66 96 1007.1
20260506030348 48 67 0.0 1.7 0.08 0.65 0.65 96 1007.2
20260506025852 48 67 0.9 1.7 0.09 0.65 0.65 96 1007.3
20260506025415 48 63 0.9 1.7 0.09 0.64 0.64 96 1007.3
20260506024835 48 63 0.0 1.7 0.08 0.63 0.63 96 1007.4
20260506024407 48 63 0.9 1.7 0.09 0.63 0.63 96 1007.7
20260506023838 48 63 0.0 2.6 0.08 0.62 0.62 96 1007.6
20260506023410 48 63 0.0 2.6 0.08 0.62 0.62 96 1007.6
20260506022844 48 63 0.0 2.6 0.08 0.61 0.61 95 1008.1
20260506022402 48 63 0.9 2.6 0.08 0.61 0.61 95 1008.1
20260506021846 48 63 0.9 1.7 0.08 0.60 0.60 95 1007.4
20260506021338 48 63 0.0 0.9 0.07 0.58 0.58 95 1007.7
20260506020857 48 63 0.0 1.7 0.07 0.57 0.57 95 1007.6
20260506020407 48 63 0.9 1.7 0.07 0.57 0.57 95 1007.6
20260506015841 48 63 0.0 1.7 0.07 0.56 0.56 95 1007.7
20260506015340 48 63 0.0 2.6 0.07 0.55 0.55 95 1007.8
20260506014918 48 63 0.9 2.6 0.07 0.55 0.55 95 1007.7
20260506014353 48 63 1.7 2.6 0.07 0.54 0.54 95 1007.5
20260506013856 48 29 0.9 2.6 0.07 0.54 0.54 95 1007.9
20260506013403 48 29 0.9 2.6 0.08 0.54 0.54 95 1007.5
20260506012842 48 29 1.7 2.6 0.08 0.53 0.53 95 1007.5
20260506012345 48 263 0.0 2.6 0.08 0.53 0.53 95 1007.9
20260506011906 48 263 0.0 1.7 0.08 0.52 0.52 95 1008.0
20260506011357 48 263 0.0 1.7 0.08 0.51 0.51 95 1008.1
20260506010851 48 263 0.9 1.7 0.08 0.50 0.50 99 1008.0
20260506010350 48 263 0.0 0.9 0.09 0.50 0.50 95 1008.0
20260506005836 48 263 0.0 1.7 0.08 0.49 0.49 95 1007.9
20260506005355 48 263 0.0 0.9 0.07 0.48 0.48 95 1007.8
20260506004909 48 263 0.0 0.9 0.08 0.48 0.48 99 1007.8
20260506004415 48 263 0.0 1.7 0.08 0.47 0.47 95 1007.7
20260506003850 48 263 0.0 1.7 0.09 0.47 0.47 95 1007.6
20260506003353 48 263 0.0 1.7 0.09 0.46 0.46 95 1007.4
20260506002912 49 263 0.0 1.7 0.09 0.45 0.45 95 1007.5
20260506002343 49 263 0.0 0.9 0.09 0.45 0.45 95 1007.6
20260506001845 49 263 0.0 1.7 0.09 0.44 0.44 95 1007.6
20260506001343 49 263 0.0 1.7 0.09 0.43 0.43 95 1007.5
20260506000843 49 263 0.9 1.7 0.08 0.42 0.42 95 1007.2
20260506000335 49 263 0.0 1.7 0.08 0.41 0.41 95 1007.1
20260505235853 49 237 0.0 1.7 0.10 0.41 0.41 95 1007.3
20260505235352 49 237 0.9 1.7 0.12 0.41 0.41 95 1007.2
20260505234850 49 237 0.9 1.7 0.13 0.40 0.40 95 1007.1
20260505234345 50 237 0.9 2.6 0.13 0.39 0.39 95 1007.1
20260505233842 50 251 0.9 2.6 0.13 0.38 0.38 94 1007.5
20260505233335 50 223 0.0 1.7 0.14 0.37 0.37 94 1007.0
20260505232913 50 223 0.0 1.7 0.14 0.36 0.36 94 1007.0
20260505232345 50 223 0.9 1.7 0.15 0.35 0.35 94 1007.0